Regional Weather Roundup
Issued by NWS

Home | Current Version | Previous Version | Text Only | Print | Product List | Glossary On
Versions: 1 2 3 4 5 6 7 8 9 10 11 12 13 14 15 16 17 18 19 20 21 22 23 24 25 26 27 28
000
ASUS45 KCYS 271410
RWRWY

WYOMING REGIONAL WEATHER ROUNDUP
NATIONAL WEATHER SERVICE CHEYENNE WY
800 AM MDT TUE JUN 27 2017

NOTE:  "FAIR" INDICATES FEW OR NO CLOUDS BELOW 12,000 FEET
WITH NO SIGNIFICANT WEATHER AND/OR OBSTRUCTIONS TO VISIBILITY.

WYZ001-271500-
YELLOWSTONE NATIONAL PARK

CITY           SKY/WX    TMP DP  RH WIND       PRES   REMARKS
LK YELLOWSTONE   N/A     51  44  77 CALM      30.11F
W YELLOWSTONE  NOT AVBL

$$
WYZ002>013-054>058-071-098>099-271500-
NORTHERN WYOMING

CITY           SKY/WX    TMP DP  RH WIND       PRES   REMARKS
JACKSON        SUNNY     55  52  88 CALM      30.05S
CODY           FAIR      68  44  42 VRB3G21   29.90R
GREYBULL       PTSUNNY   68  37  32 SE7       29.80F
WORLAND        FAIR      77  47  34 W3        29.82F
SHERIDAN       FAIR      72  45  37 W9        29.78S
BUFFALO        FAIR      69  40  34 W7        29.86R
GILLETTE       FAIR      70  51  51 SW12      29.81S
NEWCASTLE      FAIR      66  54  63 SE17G24   29.85S

$$
WYZ014>020-022>026-101>103-271500-
CENTRAL WYOMING

CITY           SKY/WX    TMP DP  RH WIND       PRES   REMARKS
BIG PINEY      FAIR      61  43  51 N17G23    30.10S
PINEDALE       FAIR      59  41  51 NW25G36   30.11S
DUBOIS         LGT RAIN  54  41  62 W26       30.13R
LANDER         FAIR      66  44  45 W3        29.96R
RIVERTON       FAIR      71  43  36 NW23G32   29.93S
CASPER         FAIR      76  41  28 SW10      29.88S
DOUGLAS        FAIR      64  54  69 S8        29.87F

$$
WYZ021-027>030-104>119-271500-
SOUTHERN WYOMING

CITY           SKY/WX    TMP DP  RH WIND       PRES   REMARKS
EVANSTON       FAIR      62  42  47 N10       30.13R
KEMMERER         N/A     55  39  54 NW14G20   30.13R
FORT BRIDGER   FAIR      64  37  35 W16       30.11R
ROCK SPRINGS   FAIR      66  37  34 NW5       30.04R
DIXON          FAIR      64  32  30 E5        30.06F
RAWLINS        FAIR      68  32  26 NE5       30.03F
SARATOGA       FAIR      63  32  31 SE16      30.06F
LARAMIE        FAIR      66  39  37 S9        30.08S
CHEYENNE       FAIR      63  53  70 SW9       30.01F
TORRINGTON     FAIR      67  57  70 S18       29.87F
PINE BLUFFS    FAIR      63  55  77 SW13      29.98F

$$




USA.gov is the U.S. government's official web portal to all federal, state and local government web resources and services.